Location: Camp at the Woods
(43.2055°N, 93.0905°W)
Time: 14:47:24
(UTC+00:00)

Cosmos 2227 Rocket - Visible Passes

Search period start: 21 May 2025 00:00
Search period end: 31 May 2025 00:00
Orbit: 838 x 843 km, 71.0° (Epoch: 21 May)

Date Brightness Start Highest point End Pass type
(mag) Time Alt. Az. Time Alt. Az. Time Alt. Az.
21 May 3.9 07:22:33 18° SE 07:24:22 21° E 07:28:29 10° NE visible
21 May 2.4 09:04:21 22° SW 09:07:54 57° WNW 09:13:28 10° NNE visible
22 May 3.9 07:07:41 18° ESE 07:09:06 20° E 07:13:04 10° NE visible
22 May 2.4 08:49:28 26° SW 08:52:36 61° WNW 08:58:12 10° NNE visible
23 May 4.0 06:52:46 18° ESE 06:53:50 19° E 06:57:38 10° ENE visible
23 May 2.3 08:34:34 31° SW 08:37:17 64° WNW 08:42:54 10° NNE visible
24 May 4.0 06:37:49 17° ESE 06:38:35 18° E 06:42:12 10° ENE visible
24 May 2.3 08:19:36 35° SW 08:21:59 68° WNW 08:27:37 10° NNE visible
24 May 4.3 10:04:33 10° WNW 10:07:08 13° NW 10:09:44 10° NNW visible
25 May 4.1 06:22:50 16° ESE 06:23:20 17° E 06:26:45 10° ENE visible
25 May 2.2 08:04:37 40° SW 08:06:41 72° WNW 08:12:20 10° NNE visible
25 May 4.3 09:48:59 10° WNW 09:51:46 14° NW 09:54:35 10° NNW visible
26 May 4.1 06:07:49 16° E 06:08:04 16° E 06:11:17 10° ENE visible
26 May 2.2 07:49:36 45° SW 07:51:23 75° WNW 07:57:03 10° NNE visible
26 May 4.3 09:33:26 10° WNW 09:36:24 14° NW 09:39:25 10° N visible
27 May 4.2 05:52:46 15° E 05:52:49 15° E 05:55:46 10° ENE visible
27 May 2.1 07:34:33 50° SW 07:36:04 80° WNW 07:41:45 10° NNE visible
27 May 4.3 09:17:53 10° WNW 09:21:03 15° NW 09:24:15 10° N visible
28 May 4.2 05:37:41 14° E 05:37:41 14° E 05:40:14 10° ENE visible
28 May 2.1 07:19:28 55° SSW 07:20:46 84° WNW 07:26:27 10° NNE visible
28 May 4.3 09:02:22 10° W 09:05:42 16° NW 09:09:03 10° N visible
29 May 4.3 05:22:34 13° E 05:22:34 13° E 05:24:41 10° ENE visible
29 May 2.1 07:04:21 60° SSW 07:05:28 88° WNW 07:11:09 10° NNE visible
29 May 4.3 08:46:51 10° W 08:50:20 16° NW 08:53:51 10° N visible
30 May 4.3 05:07:25 12° E 05:07:25 12° E 05:09:03 10° ENE visible
30 May 2.1 06:49:12 63° SSW 06:50:10 88° ESE 06:55:51 10° NNE visible
30 May 4.2 08:31:21 10° W 08:34:59 17° NW 08:38:39 10° N visible
